sat.trackr.live / text

‹ back to catalog

STARLINK-4629

NORAD 53968 · 2022-125E

PAYLOAD ACTIVE UNKNOWN

§ Identity

Operator
Country
US
Launch date
2022-10-05
Launch site
AFWTR
Launch vehicle
Mass (kg)
RCS (m²)

Purposes: comms

External: N2YO · Heavens-Above · Gunter

§ Orbital elements

Epoch: 2026-05-24T16:04:05.888640Z

Period
95.44 min
Inclination
53.2169°
Eccentricity
0.0001217
Mean motion
15.08830596 rev/d
Perigee alt
538.9 km
Apogee alt
540.6 km
Semi-major
6,917.9 km
B*
1.3829e-4
RAAN
242.9502°
Arg perigee
101.6342°
Mean anomaly
258.4787°
Rev number
20,079

§ Raw data

STARLINK-46291 53968U 22125E   26144.66951260  .00001913  00000+0  13829-3 0  99942 53968  53.2169 242.9502 0001217 101.6342 258.4787 15.08830596200795

JSON: /api/v1/satellites/53968 · /tle

For live sub-satellite position, see the globe view (requires WebGL).

§ Visibility from observer

Set your observer location to see the next 7 days of passes ≥ 10°. The values pass through the URL so the page stays shareable.

No JS? Fill the form by hand. The geolocation button needs JavaScript.